| time (UTC) | temp C | wind direction | speed KPH | gust KPH | rain 1hr cm | rain 24hr cm | rain mn cm | humidity % | barometer mb |
| 20260510144047 | 18 | 31 | 0.0 | 3.2 | 0.00 | 0.00 | 0.00 | 63 | 1020.4 |
| 20260510143542 | 18 | 58 | 0.0 | 3.2 | 0.00 | 0.00 | 0.00 | 64 | 1020.3 |
| 20260510143039 | 18 | 64 | 1.6 | 1.6 | 0.00 | 0.00 | 0.00 | 64 | 1020.3 |
| 20260510142536 | 18 | 83 | 1.6 | 1.6 | 0.00 | 0.00 | 0.00 | 65 | 1020.2 |
| 20260510142033 | 17 | 24 | 1.6 | 3.2 | 0.00 | 0.00 | 0.00 | 64 | 1020.1 |
| 20260510141529 | 17 | 283 | 3.2 | 4.8 | 0.00 | 0.00 | 0.00 | 65 | 1020.3 |
| 20260510141027 | 17 | 282 | 4.8 | 9.7 | 0.00 | 0.00 | 0.00 | 64 | 1020.2 |
| 20260510140523 | 17 | 34 | 0.0 | 4.8 | 0.00 | 0.00 | 0.00 | 65 | 1020.3 |
| 20260510140023 | 17 | 69 | 3.2 | 3.2 | 0.00 | 0.00 | 0.00 | 66 | 1020.0 |
| 20260510135519 | 17 | 74 | 3.2 | 6.4 | 0.00 | 0.00 | 0.00 | 65 | 1020.0 |
| 20260510135015 | 17 | 42 | 1.6 | 1.6 | 0.00 | 0.00 | 0.00 | 68 | 1019.6 |
| 20260510134512 | 17 | 300 | 4.8 | 4.8 | 0.00 | 0.00 | 0.00 | 66 | 1019.5 |
| 20260510134009 | 17 | 47 | 0.0 | 3.2 | 0.00 | 0.00 | 0.00 | 68 | 1019.4 |
| 20260510133505 | 16 | 8 | 1.6 | 4.8 | 0.00 | 0.00 | 0.00 | 69 | 1019.3 |
| 20260510133000 | 16 | 39 | 0.0 | 1.6 | 0.00 | 0.00 | 0.00 | 71 | 1019.3 |
| 20260510132458 | 16 | 29 | 0.0 | 0.0 | 0.00 | 0.00 | 0.00 | 71 | 1019.2 |
| 20260510131955 | 16 | 29 | 1.6 | 3.2 | 0.00 | 0.00 | 0.00 | 70 | 1019.1 |
| 20260510131453 | 16 | 32 | 1.6 | 4.8 | 0.00 | 0.00 | 0.00 | 72 | 1018.9 |
| 20260510130949 | 16 | 26 | 3.2 | 3.2 | 0.00 | 0.00 | 0.00 | 74 | 1018.9 |
| 20260510130446 | 15 | 22 | 1.6 | 1.6 | 0.00 | 0.00 | 0.00 | 75 | 1018.8 |
| 20260510125943 | 15 | 65 | 0.0 | 3.2 | 0.00 | 0.00 | 0.00 | 76 | 1019.0 |
| 20260510125439 | 15 | 55 | 0.0 | 1.6 | 0.00 | 0.00 | 0.00 | 78 | 1019.0 |
| 20260510124936 | 15 | 57 | 0.0 | 0.0 | 0.00 | 0.00 | 0.00 | 79 | 1018.7 |
| 20260510124432 | 15 | 57 | 0.0 | 0.0 | 0.00 | 0.00 | 0.00 | 80 | 1018.8 |
| 20260510123929 | 15 | 57 | 0.0 | 0.0 | 0.00 | 0.00 | 0.00 | 80 | 1018.6 |
| 20260510123425 | 14 | 57 | 0.0 | 0.0 | 0.00 | 0.00 | 0.00 | 80 | 1018.6 |
| 20260510122921 | 14 | 57 | 0.0 | 0.0 | 0.00 | 0.00 | 0.00 | 80 | 1018.4 |
| 20260510122416 | 14 | 57 | 0.0 | 0.0 | 0.00 | 0.00 | 0.00 | 80 | 1018.2 |
| 20260510121913 | 14 | 58 | 0.0 | 0.0 | 0.00 | 0.00 | 0.00 | 81 | 1018.3 |
| 20260510121410 | 13 | 50 | 0.0 | 0.0 | 0.00 | 0.00 | 0.00 | 81 | 1018.2 |
| 20260510120908 | 13 | 50 | 0.0 | 0.0 | 0.00 | 0.00 | 0.00 | 81 | 1018.1 |
| 20260510120405 | 13 | 50 | 0.0 | 1.6 | 0.00 | 0.00 | 0.00 | 82 | 1018.1 |
| 20260510115900 | 13 | 193 | 0.0 | 0.0 | 0.00 | 0.00 | 0.00 | 83 | 1017.9 |
| 20260510115352 | 13 | 193 | 0.0 | 0.0 | 0.00 | 0.00 | 0.00 | 82 | 1017.9 |
| 20260510114848 | 13 | 193 | 0.0 | 0.0 | 0.00 | 0.00 | 0.00 | 82 | 1018.1 |
| 20260510114345 | 13 | 193 | 0.0 | 0.0 | 0.00 | 0.00 | 0.00 | 82 | 1018.0 |
| 20260510113846 | 13 | 193 | 0.0 | 0.0 | 0.00 | 0.00 | 0.00 | 82 | 1017.5 |
| 20260510113342 | 13 | 193 | 0.0 | 0.0 | 0.00 | 0.00 | 0.00 | 81 | 1017.7 |
| 20260510112839 | 13 | 193 | 0.0 | 0.0 | 0.00 | 0.00 | 0.00 | 80 | 1017.5 |
| 20260510112336 | 13 | 193 | 0.0 | 0.0 | 0.00 | 0.00 | 0.00 | 79 | 1017.4 |
| 20260510111832 | 13 | 193 | 0.0 | 0.0 | 0.00 | 0.00 | 0.00 | 79 | 1017.3 |
| 20260510111329 | 13 | 193 | 0.0 | 0.0 | 0.00 | 0.00 | 0.00 | 79 | 1017.2 |
| 20260510110828 | 13 | 193 | 0.0 | 0.0 | 0.00 | 0.00 | 0.00 | 80 | 1017.3 |
| 20260510110326 | 13 | 193 | 0.0 | 0.0 | 0.00 | 0.00 | 0.00 | 81 | 1017.0 |
| 20260510105822 | 13 | 193 | 0.0 | 0.0 | 0.00 | 0.00 | 0.00 | 83 | 1017.0 |
| 20260510105322 | 13 | 193 | 0.0 | 0.0 | 0.00 | 0.00 | 0.00 | 83 | 1017.2 |
| 20260510104818 | 13 | 193 | 0.0 | 0.0 | 0.00 | 0.00 | 0.00 | 84 | 1017.0 |
| 20260510104316 | 13 | 192 | 0.0 | 0.0 | 0.00 | 0.00 | 0.00 | 84 | 1016.7 |
| 20260510103812 | 13 | 192 | 0.0 | 0.0 | 0.00 | 0.00 | 0.00 | 85 | 1017.0 |
| 20260510103309 | 13 | 192 | 0.0 | 0.0 | 0.00 | 0.00 | 0.00 | 85 | 1016.9 |
| 20260510102804 | 13 | 193 | 0.0 | 0.0 | 0.00 | 0.00 | 0.00 | 85 | 1017.0 |
| 20260510102300 | 13 | 192 | 0.0 | 0.0 | 0.00 | 0.00 | 0.00 | 85 | 1017.0 |
| 20260510101757 | 13 | 192 | 0.0 | 0.0 | 0.00 | 0.00 | 0.00 | 85 | 1016.9 |
| 20260510101256 | 13 | 193 | 0.0 | 0.0 | 0.00 | 0.00 | 0.00 | 85 | 1016.9 |
| 20260510100751 | 13 | 193 | 0.0 | 0.0 | 0.00 | 0.00 | 0.00 | 85 | 1016.7 |
| 20260510100250 | 13 | 193 | 0.0 | 0.0 | 0.00 | 0.00 | 0.00 | 85 | 1016.4 |
| 20260510095749 | 13 | 193 | 0.0 | 0.0 | 0.00 | 0.00 | 0.00 | 84 | 1016.4 |
| 20260510095245 | 13 | 193 | 0.0 | 0.0 | 0.00 | 0.00 | 0.00 | 83 | 1016.4 |
| 20260510094744 | 13 | 193 | 0.0 | 0.0 | 0.00 | 0.00 | 0.00 | 83 | 1016.4 |
| 20260510094240 | 13 | 193 | 0.0 | 0.0 | 0.00 | 0.00 | 0.00 | 83 | 1016.5 |
| 20260510093736 | 13 | 193 | 0.0 | 0.0 | 0.00 | 0.00 | 0.00 | 82 | 1016.4 |
| 20260510093233 | 14 | 193 | 0.0 | 0.0 | 0.00 | 0.00 | 0.00 | 81 | 1016.2 |
| 20260510092729 | 14 | 193 | 0.0 | 0.0 | 0.00 | 0.00 | 0.00 | 80 | 1016.2 |
| 20260510092225 | 14 | 193 | 0.0 | 0.0 | 0.00 | 0.00 | 0.00 | 79 | 1016.1 |
| 20260510091721 | 14 | 193 | 0.0 | 0.0 | 0.00 | 0.00 | 0.00 | 80 | 1015.9 |
| 20260510091218 | 14 | 193 | 0.0 | 0.0 | 0.00 | 0.00 | 0.00 | 79 | 1016.2 |
| 20260510090714 | 14 | 193 | 0.0 | 0.0 | 0.00 | 0.00 | 0.00 | 79 | 1015.9 |
| 20260510090211 | 13 | 193 | 0.0 | 0.0 | 0.00 | 0.00 | 0.00 | 80 | 1016.1 |
| 20260510085706 | 14 | 193 | 0.0 | 0.0 | 0.00 | 0.00 | 0.00 | 81 | 1016.1 |
| 20260510085201 | 14 | 193 | 0.0 | 0.0 | 0.00 | 0.00 | 0.00 | 81 | 1015.9 |
| 20260510084658 | 14 | 192 | 0.0 | 0.0 | 0.00 | 0.00 | 0.00 | 80 | 1015.7 |
| 20260510084154 | 15 | 192 | 0.0 | 0.0 | 0.00 | 0.00 | 0.00 | 79 | 1015.7 |
| 20260510083646 | 15 | 193 | 0.0 | 0.0 | 0.00 | 0.00 | 0.00 | 79 | 1015.8 |
| 20260510083143 | 15 | 193 | 0.0 | 0.0 | 0.00 | 0.00 | 0.00 | 79 | 1015.5 |
| 20260510082639 | 15 | 193 | 0.0 | 0.0 | 0.00 | 0.00 | 0.00 | 79 | 1015.5 |
| 20260510082135 | 14 | 193 | 0.0 | 0.0 | 0.00 | 0.00 | 0.00 | 80 | 1015.6 |
| 20260510081629 | 14 | 193 | 0.0 | 0.0 | 0.00 | 0.00 | 0.00 | 82 | 1015.5 |
| 20260510081125 | 15 | 193 | 0.0 | 0.0 | 0.00 | 0.00 | 0.00 | 81 | 1015.7 |
| 20260510080619 | 15 | 193 | 0.0 | 0.0 | 0.00 | 0.00 | 0.00 | 79 | 1015.9 |
| 20260510080116 | 15 | 192 | 0.0 | 0.0 | 0.00 | 0.00 | 0.00 | 79 | 1016.1 |
| 20260510075614 | 15 | 192 | 0.0 | 0.0 | 0.00 | 0.00 | 0.00 | 78 | 1015.9 |
| 20260510075110 | 15 | 192 | 0.0 | 0.0 | 0.00 | 0.00 | 0.00 | 78 | 1016.0 |
| 20260510074602 | 15 | 193 | 0.0 | 0.0 | 0.00 | 0.00 | 0.00 | 77 | 1015.9 |
| 20260510074057 | 15 | 186 | 1.6 | 1.6 | 0.00 | 0.00 | 0.00 | 77 | 1015.8 |
| 20260510073554 | 15 | 186 | 0.0 | 0.0 | 0.00 | 0.00 | 0.00 | 77 | 1015.8 |
| 20260510073051 | 15 | 187 | 3.2 | 3.2 | 0.00 | 0.00 | 0.00 | 75 | 1015.5 |
| 20260510072547 | 15 | 187 | 1.6 | 1.6 | 0.00 | 0.00 | 0.00 | 75 | 1015.7 |
| 20260510072043 | 15 | 186 | 0.0 | 0.0 | 0.00 | 0.00 | 0.00 | 74 | 1015.6 |
| 20260510071539 | 16 | 186 | 0.0 | 0.0 | 0.00 | 0.00 | 0.00 | 72 | 1015.7 |
| 20260510071038 | 16 | 186 | 0.0 | 0.0 | 0.00 | 0.00 | 0.00 | 73 | 1015.5 |
| 20260510070534 | 16 | 186 | 0.0 | 0.0 | 0.00 | 0.00 | 0.00 | 69 | 1015.7 |
| 20260510070031 | 16 | 186 | 0.0 | 0.0 | 0.00 | 0.00 | 0.00 | 69 | 1015.7 |
| 20260510065527 | 16 | 186 | 0.0 | 0.0 | 0.00 | 0.00 | 0.00 | 68 | 1015.6 |
| 20260510065023 | 16 | 186 | 0.0 | 0.0 | 0.00 | 0.00 | 0.00 | 66 | 1015.5 |
| 20260510064520 | 16 | 186 | 0.0 | 0.0 | 0.00 | 0.00 | 0.00 | 69 | 1015.5 |
| 20260510064017 | 16 | 186 | 0.0 | 0.0 | 0.00 | 0.00 | 0.00 | 73 | 1015.6 |
| 20260510063514 | 15 | 186 | 0.0 | 0.0 | 0.00 | 0.00 | 0.00 | 74 | 1015.4 |
| 20260510063011 | 15 | 186 | 0.0 | 0.0 | 0.00 | 0.00 | 0.00 | 74 | 1015.8 |
| 20260510062507 | 15 | 186 | 0.0 | 0.0 | 0.00 | 0.00 | 0.00 | 76 | 1015.7 |
| 20260510062002 | 15 | 186 | 0.0 | 0.0 | 0.00 | 0.00 | 0.00 | 77 | 1015.7 |
| 20260510061459 | 15 | 186 | 0.0 | 1.6 | 0.00 | 0.00 | 0.00 | 80 | 1015.9 |
| 20260510060955 | 15 | 175 | 1.6 | 3.2 | 0.00 | 0.00 | 0.00 | 80 | 1015.8 |
| 20260510060452 | 15 | 181 | 0.0 | 1.6 | 0.00 | 0.00 | 0.00 | 80 | 1015.7 |
| 20260510055948 | 15 | 172 | 0.0 | 0.0 | 0.00 | 0.00 | 0.00 | 78 | 1015.5 |
| 20260510055444 | 15 | 171 | 0.0 | 0.0 | 0.00 | 0.00 | 0.00 | 78 | 1015.4 |
| 20260510054942 | 15 | 171 | 0.0 | 0.0 | 0.00 | 0.00 | 0.00 | 77 | 1015.5 |
| 20260510054437 | 15 | 172 | 0.0 | 0.0 | 0.00 | 0.00 | 0.00 | 77 | 1015.5 |
| 20260510053932 | 15 | 171 | 0.0 | 0.0 | 0.00 | 0.00 | 0.00 | 77 | 1015.2 |
| 20260510053428 | 15 | 171 | 0.0 | 0.0 | 0.00 | 0.00 | 0.00 | 78 | 1015.2 |
| 20260510052925 | 15 | 172 | 0.0 | 0.0 | 0.00 | 0.00 | 0.00 | 78 | 1015.4 |
| 20260510052420 | 16 | 171 | 0.0 | 0.0 | 0.00 | 0.00 | 0.00 | 77 | 1015.6 |
| 20260510051917 | 16 | 171 | 0.0 | 0.0 | 0.00 | 0.00 | 0.00 | 77 | 1015.2 |
| 20260510051414 | 16 | 171 | 0.0 | 0.0 | 0.00 | 0.00 | 0.00 | 75 | 1015.4 |
| 20260510050910 | 16 | 171 | 0.0 | 0.0 | 0.00 | 0.00 | 0.00 | 74 | 1015.3 |
| 20260510050407 | 16 | 172 | 0.0 | 0.0 | 0.00 | 0.00 | 0.00 | 72 | 1015.1 |
| 20260510045904 | 16 | 172 | 0.0 | 0.0 | 0.00 | 0.00 | 0.00 | 72 | 1014.9 |
| 20260510045401 | 16 | 171 | 0.0 | 0.0 | 0.00 | 0.00 | 0.00 | 70 | 1015.1 |
| 20260510044858 | 16 | 171 | 0.0 | 0.0 | 0.00 | 0.00 | 0.00 | 69 | 1015.1 |
| 20260510044355 | 16 | 172 | 0.0 | 0.0 | 0.00 | 0.00 | 0.00 | 71 | 1015.0 |
| 20260510043851 | 16 | 172 | 0.0 | 0.0 | 0.00 | 0.00 | 0.00 | 71 | 1015.1 |
| 20260510043347 | 16 | 171 | 0.0 | 0.0 | 0.00 | 0.00 | 0.00 | 73 | 1015.2 |
| 20260510042845 | 16 | 172 | 0.0 | 0.0 | 0.00 | 0.00 | 0.00 | 72 | 1015.1 |
| 20260510042341 | 16 | 172 | 0.0 | 0.0 | 0.00 | 0.00 | 0.00 | 70 | 1015.1 |
| 20260510041837 | 16 | 172 | 0.0 | 0.0 | 0.00 | 0.00 | 0.00 | 69 | 1015.0 |
| 20260510041335 | 17 | 172 | 0.0 | 0.0 | 0.00 | 0.00 | 0.00 | 67 | 1015.1 |
| 20260510040832 | 17 | 172 | 0.0 | 0.0 | 0.00 | 0.00 | 0.00 | 66 | 1015.1 |
| 20260510040329 | 16 | 172 | 0.0 | 0.0 | 0.00 | 0.00 | 0.00 | 66 | 1014.7 |
| 20260510035824 | 16 | 172 | 0.0 | 0.0 | 0.00 | 0.00 | 0.00 | 68 | 1014.8 |
| 20260510035320 | 17 | 172 | 0.0 | 0.0 | 0.00 | 0.00 | 0.00 | 67 | 1014.6 |
| 20260510034816 | 17 | 172 | 0.0 | 0.0 | 0.00 | 0.00 | 0.00 | 66 | 1014.7 |
| 20260510034314 | 17 | 171 | 0.0 | 0.0 | 0.00 | 0.00 | 0.00 | 65 | 1014.8 |
| 20260510033810 | 17 | 171 | 0.0 | 1.6 | 0.00 | 0.00 | 0.00 | 65 | 1014.7 |
| 20260510033307 | 17 | 171 | 0.0 | 1.6 | 0.00 | 0.00 | 0.00 | 63 | 1014.7 |
| 20260510032804 | 17 | 172 | 0.0 | 0.0 | 0.00 | 0.00 | 0.00 | 61 | 1014.7 |
| 20260510032300 | 17 | 171 | 0.0 | 0.0 | 0.00 | 0.00 | 0.00 | 62 | 1014.6 |
| 20260510031756 | 17 | 171 | 0.0 | 0.0 | 0.00 | 0.00 | 0.00 | 61 | 1014.5 |
| 20260510031251 | 17 | 171 | 0.0 | 0.0 | 0.00 | 0.00 | 0.00 | 61 | 1014.4 |
| 20260510030745 | 17 | 171 | 0.0 | 0.0 | 0.00 | 0.00 | 0.00 | 58 | 1014.4 |
| 20260510030243 | 18 | 171 | 0.0 | 0.0 | 0.00 | 0.00 | 0.00 | 59 | 1014.5 |
| 20260510025739 | 18 | 171 | 0.0 | 0.0 | 0.00 | 0.00 | 0.00 | 58 | 1014.4 |
| 20260510025237 | 18 | 171 | 0.0 | 0.0 | 0.00 | 0.00 | 0.00 | 57 | 1014.1 |
| 20260510024728 | 18 | 171 | 0.0 | 0.0 | 0.00 | 0.00 | 0.00 | 57 | 1014.0 |
| 20260510024225 | 18 | 171 | 0.0 | 0.0 | 0.00 | 0.00 | 0.00 | 57 | 1013.9 |
| 20260510023720 | 18 | 172 | 0.0 | 0.0 | 0.00 | 0.00 | 0.00 | 56 | 1013.9 |
| 20260510023218 | 19 | 172 | 0.0 | 0.0 | 0.00 | 0.00 | 0.00 | 54 | 1013.6 |
| 20260510022714 | 19 | 172 | 0.0 | 0.0 | 0.00 | 0.00 | 0.00 | 54 | 1013.5 |
| 20260510022208 | 20 | 172 | 0.0 | 0.0 | 0.00 | 0.00 | 0.00 | 54 | 1013.6 |
| 20260510021703 | 20 | 171 | 0.0 | 0.0 | 0.00 | 0.00 | 0.00 | 51 | 1013.3 |
| 20260510021201 | 20 | 172 | 0.0 | 0.0 | 0.00 | 0.00 | 0.00 | 52 | 1013.2 |
| 20260510020656 | 20 | 171 | 0.0 | 0.0 | 0.00 | 0.00 | 0.00 | 52 | 1013.2 |
| 20260510020151 | 20 | 172 | 0.0 | 0.0 | 0.00 | 0.00 | 0.00 | 52 | 1013.1 |
| 20260510015647 | 21 | 172 | 0.0 | 0.0 | 0.00 | 0.00 | 0.00 | 49 | 1013.0 |
| 20260510015139 | 21 | 172 | 0.0 | 0.0 | 0.00 | 0.00 | 0.00 | 45 | 1012.7 |
| 20260510014638 | 21 | 172 | 0.0 | 0.0 | 0.00 | 0.00 | 0.00 | 46 | 1012.7 |
| 20260510014136 | 21 | 172 | 0.0 | 0.0 | 0.00 | 0.00 | 0.00 | 45 | 1012.6 |
| 20260510013631 | 21 | 172 | 0.0 | 0.0 | 0.00 | 0.00 | 0.00 | 44 | 1012.6 |
| 20260510013126 | 21 | 172 | 0.0 | 0.0 | 0.00 | 0.00 | 0.00 | 45 | 1012.5 |
| 20260510012621 | 21 | 172 | 0.0 | 0.0 | 0.00 | 0.00 | 0.00 | 44 | 1012.5 |
| 20260510012118 | 22 | 172 | 0.0 | 0.0 | 0.00 | 0.00 | 0.00 | 44 | 1012.4 |
| 20260510011616 | 22 | 172 | 0.0 | 0.0 | 0.00 | 0.00 | 0.00 | 43 | 1012.4 |
| 20260510011112 | 22 | 172 | 0.0 | 0.0 | 0.00 | 0.00 | 0.00 | 44 | 1012.5 |
| 20260510010609 | 22 | 172 | 0.0 | 0.0 | 0.00 | 0.00 | 0.00 | 44 | 1012.4 |
| 20260510010107 | 22 | 172 | 0.0 | 0.0 | 0.00 | 0.00 | 0.00 | 43 | 1012.3 |
| 20260510005601 | 23 | 172 | 0.0 | 0.0 | 0.00 | 0.00 | 0.00 | 42 | 1012.2 |
| 20260510005059 | 23 | 172 | 0.0 | 0.0 | 0.00 | 0.00 | 0.00 | 40 | 1012.1 |
| 20260510004557 | 23 | 172 | 0.0 | 0.0 | 0.00 | 0.00 | 0.00 | 39 | 1012.3 |
| 20260510004055 | 23 | 172 | 0.0 | 0.0 | 0.00 | 0.00 | 0.00 | 38 | 1012.3 |
| 20260510003552 | 23 | 172 | 0.0 | 0.0 | 0.00 | 0.00 | 0.00 | 38 | 1011.9 |
| 20260510003047 | 23 | 172 | 0.0 | 0.0 | 0.00 | 0.00 | 0.00 | 38 | 1012.2 |
| 20260510002542 | 23 | 172 | 0.0 | 0.0 | 0.00 | 0.00 | 0.00 | 39 | 1012.0 |
| 20260510002040 | 24 | 172 | 0.0 | 0.0 | 0.00 | 0.00 | 0.00 | 40 | 1012.0 |
| 20260510001537 | 24 | 172 | 0.0 | 0.0 | 0.00 | 0.00 | 0.00 | 38 | 1012.0 |
| 20260510001035 | 24 | 172 | 0.0 | 0.0 | 0.00 | 0.00 | 0.00 | 37 | 1012.0 |
| 20260510000530 | 25 | 172 | 0.0 | 0.0 | 0.00 | 0.00 | 0.00 | 36 | 1012.0 |
| 20260510000027 | 25 | 172 | 0.0 | 0.0 | 0.00 | 0.00 | 0.00 | 35 | 1012.2 |
| 20260509235524 | 25 | 172 | 0.0 | 0.0 | 0.00 | 0.00 | 0.00 | 35 | 1012.2 |
| 20260509235021 | 25 | 172 | 0.0 | 0.0 | 0.00 | 0.00 | 0.00 | 36 | 1012.0 |
| 20260509234517 | 25 | 172 | 0.0 | 0.0 | 0.00 | 0.00 | 0.00 | 35 | 1012.1 |
| 20260509234015 | 25 | 172 | 0.0 | 0.0 | 0.00 | 0.00 | 0.00 | 36 | 1011.7 |
| 20260509233513 | 25 | 172 | 0.0 | 0.0 | 0.00 | 0.00 | 0.00 | 36 | 1011.9 |
| 20260509233010 | 25 | 173 | 0.0 | 0.0 | 0.00 | 0.00 | 0.00 | 34 | 1012.0 |
| 20260509232507 | 25 | 173 | 0.0 | 0.0 | 0.00 | 0.00 | 0.00 | 34 | 1011.9 |
| 20260509232003 | 25 | 173 | 0.0 | 0.0 | 0.00 | 0.00 | 0.00 | 33 | 1012.2 |
| 20260509231459 | 26 | 173 | 0.0 | 0.0 | 0.00 | 0.00 | 0.00 | 36 | 1012.2 |
| 20260509230957 | 26 | 173 | 0.0 | 1.6 | 0.00 | 0.00 | 0.00 | 32 | 1012.1 |
| 20260509230454 | 26 | 135 | 0.0 | 1.6 | 0.00 | 0.00 | 0.00 | 34 | 1012.1 |
| 20260509225950 | 26 | 173 | 0.0 | 1.6 | 0.00 | 0.00 | 0.00 | 35 | 1012.0 |
| 20260509225446 | 26 | 173 | 0.0 | 0.0 | 0.00 | 0.00 | 0.00 | 35 | 1011.9 |
| 20260509224942 | 26 | 173 | 0.0 | 0.0 | 0.00 | 0.00 | 0.00 | 33 | 1012.1 |
| 20260509224437 | 26 | 179 | 0.0 | 0.0 | 0.00 | 0.00 | 0.00 | 33 | 1011.9 |
| 20260509223935 | 26 | 180 | 0.0 | 0.0 | 0.00 | 0.00 | 0.00 | 36 | 1012.1 |
| 20260509223431 | 26 | 180 | 0.0 | 1.6 | 0.00 | 0.00 | 0.00 | 31 | 1012.0 |
| 20260509222929 | 26 | 180 | 0.0 | 1.6 | 0.00 | 0.00 | 0.00 | 31 | 1012.1 |
| 20260509222424 | 26 | 177 | 0.0 | 0.0 | 0.00 | 0.00 | 0.00 | 29 | 1011.9 |
| 20260509221920 | 26 | 177 | 0.0 | 1.6 | 0.00 | 0.00 | 0.00 | 28 | 1012.0 |
| 20260509221417 | 26 | 175 | 1.6 | 1.6 | 0.00 | 0.00 | 0.00 | 28 | 1012.1 |
| 20260509220913 | 26 | 183 | 1.6 | 3.2 | 0.00 | 0.00 | 0.00 | 30 | 1012.1 |
| 20260509220409 | 26 | 234 | 0.0 | 0.0 | 0.00 | 0.00 | 0.00 | 28 | 1012.1 |
| 20260509215905 | 26 | 235 | 1.6 | 1.6 | 0.00 | 0.00 | 0.00 | 27 | 1012.0 |
| 20260509215401 | 26 | 234 | 0.0 | 1.6 | 0.00 | 0.00 | 0.00 | 28 | 1012.0 |
| 20260509214858 | 26 | 241 | 0.0 | 3.2 | 0.00 | 0.00 | 0.00 | 28 | 1012.1 |
| 20260509214355 | 26 | 311 | 1.6 | 3.2 | 0.00 | 0.00 | 0.00 | 29 | 1012.0 |
| 20260509213853 | 27 | 312 | 0.0 | 0.0 | 0.00 | 0.00 | 0.00 | 28 | 1012.1 |
| 20260509213347 | 27 | 312 | 0.0 | 1.6 | 0.00 | 0.00 | 0.00 | 30 | 1012.2 |
| 20260509212846 | 27 | 318 | 1.6 | 3.2 | 0.00 | 0.00 | 0.00 | 28 | 1012.2 |
| 20260509212343 | 27 | 351 | 0.0 | 3.2 | 0.00 | 0.00 | 0.00 | 28 | 1012.0 |
| 20260509211838 | 26 | 301 | 3.2 | 1.6 | 0.00 | 0.00 | 0.00 | 30 | 1012.1 |
| 20260509211334 | 26 | 302 | 0.0 | 3.2 | 0.00 | 0.00 | 0.00 | 31 | 1012.2 |
| 20260509210831 | 27 | 308 | 1.6 | 6.4 | 0.00 | 0.00 | 0.00 | 30 | 1012.1 |
| 20260509210329 | 27 | 310 | 0.0 | 1.6 | 0.00 | 0.00 | 0.00 | 30 | 1012.1 |
| 20260509205828 | 27 | 310 | 0.0 | 1.6 | 0.00 | 0.00 | 0.00 | 26 | 1012.2 |
| 20260509205323 | 27 | 296 | 0.0 | 0.0 | 0.00 | 0.00 | 0.00 | 27 | 1012.2 |
| 20260509204820 | 27 | 292 | 0.0 | 0.0 | 0.00 | 0.00 | 0.00 | 27 | 1012.4 |
| 20260509204316 | 27 | 281 | 0.0 | 0.0 | 0.00 | 0.00 | 0.00 | 30 | 1012.1 |
| 20260509203813 | 27 | 280 | 3.2 | 3.2 | 0.00 | 0.00 | 0.00 | 28 | 1012.6 |
| 20260509203310 | 27 | 308 | 3.2 | 4.8 | 0.00 | 0.00 | 0.00 | 29 | 1012.4 |
| 20260509202806 | 27 | 320 | 1.6 | 3.2 | 0.00 | 0.00 | 0.00 | 29 | 1012.4 |
| 20260509202306 | 27 | 304 | 3.2 | 4.8 | 0.00 | 0.00 | 0.00 | 27 | 1012.4 |
| 20260509201801 | 27 | 292 | 0.0 | 1.6 | 0.00 | 0.00 | 0.00 | 28 | 1012.6 |
| 20260509201258 | 27 | 302 | 1.6 | 3.2 | 0.00 | 0.00 | 0.00 | 28 | 1012.7 |
| 20260509200754 | 27 | 287 | 1.6 | 4.8 | 0.00 | 0.00 | 0.00 | 28 | 1012.7 |
| 20260509200250 | 27 | 219 | 3.2 | 3.2 | 0.00 | 0.00 | 0.00 | 27 | 1012.6 |
| 20260509195746 | 27 | 151 | 1.6 | 1.6 | 0.00 | 0.00 | 0.00 | 27 | 1012.8 |
| 20260509195242 | 27 | 232 | 0.0 | 4.8 | 0.00 | 0.00 | 0.00 | 28 | 1012.8 |
| 20260509194736 | 27 | 267 | 0.0 | 1.6 | 0.00 | 0.00 | 0.00 | 27 | 1012.8 |
| 20260509194233 | 27 | 267 | 3.2 | 3.2 | 0.00 | 0.00 | 0.00 | 29 | 1012.9 |
| 20260509193730 | 27 | 292 | 0.0 | 1.6 | 0.00 | 0.00 | 0.00 | 31 | 1013.1 |
| 20260509193229 | 27 | 293 | 3.2 | 3.2 | 0.00 | 0.00 | 0.00 | 29 | 1012.9 |
| 20260509192726 | 27 | 303 | 3.2 | 4.8 | 0.00 | 0.00 | 0.00 | 28 | 1012.9 |
| 20260509192221 | 27 | 275 | 1.6 | 1.6 | 0.00 | 0.00 | 0.00 | 30 | 1012.9 |
| 20260509191716 | 27 | 357 | 0.0 | 1.6 | 0.00 | 0.00 | 0.00 | 28 | 1013.0 |
| 20260509191213 | 27 | 21 | 3.2 | 3.2 | 0.00 | 0.00 | 0.00 | 32 | 1012.9 |
| 20260509190709 | 27 | 285 | 0.0 | 1.6 | 0.00 | 0.00 | 0.00 | 31 | 1012.9 |
| 20260509190207 | 27 | 285 | 3.2 | 3.2 | 0.00 | 0.00 | 0.00 | 31 | 1013.1 |
| 20260509185704 | 27 | 313 | 3.2 | 3.2 | 0.00 | 0.00 | 0.00 | 30 | 1013.1 |
| 20260509185200 | 27 | 308 | 3.2 | 4.8 | 0.00 | 0.00 | 0.00 | 28 | 1013.0 |
| 20260509184658 | 27 | 204 | 1.6 | 3.2 | 0.00 | 0.00 | 0.00 | 29 | 1013.1 |
| 20260509184155 | 27 | 294 | 3.2 | 4.8 | 0.00 | 0.00 | 0.00 | 27 | 1013.1 |
| 20260509183651 | 27 | 270 | 1.6 | 3.2 | 0.00 | 0.00 | 0.00 | 29 | 1013.0 |
| 20260509183146 | 27 | 268 | 3.2 | 3.2 | 0.00 | 0.00 | 0.00 | 30 | 1013.1 |
| 20260509182642 | 27 | 288 | 3.2 | 3.2 | 0.00 | 0.00 | 0.00 | 29 | 1013.0 |
| 20260509182140 | 27 | 300 | 1.6 | 3.2 | 0.00 | 0.00 | 0.00 | 26 | 1013.0 |
| 20260509181638 | 27 | 307 | 1.6 | 4.8 | 0.00 | 0.00 | 0.00 | 31 | 1013.1 |
| 20260509181135 | 27 | 252 | 3.2 | 3.2 | 0.00 | 0.00 | 0.00 | 30 | 1013.0 |
| 20260509180631 | 27 | 297 | 3.2 | 3.2 | 0.00 | 0.00 | 0.00 | 28 | 1013.0 |
| 20260509180128 | 27 | 303 | 0.0 | 3.2 | 0.00 | 0.00 | 0.00 | 28 | 1013.2 |
| 20260509175623 | 27 | 280 | 4.8 | 4.8 | 0.00 | 0.00 | 0.00 | 31 | 1013.2 |
| 20260509175121 | 27 | 297 | 0.0 | 3.2 | 0.00 | 0.00 | 0.00 | 31 | 1013.2 |
| 20260509174617 | 26 | 277 | 3.2 | 3.2 | 0.00 | 0.00 | 0.00 | 33 | 1013.3 |
| 20260509174112 | 26 | 300 | 1.6 | 3.2 | 0.00 | 0.00 | 0.00 | 33 | 1013.3 |
| 20260509173608 | 26 | 312 | 1.6 | 1.6 | 0.00 | 0.00 | 0.00 | 33 | 1013.1 |
| 20260509173104 | 26 | 16 | 1.6 | 3.2 | 0.00 | 0.00 | 0.00 | 34 | 1013.0 |
| 20260509172601 | 26 | 296 | 0.0 | 4.8 | 0.00 | 0.00 | 0.00 | 36 | 1013.3 |
| 20260509172056 | 26 | 283 | 4.8 | 9.7 | 0.00 | 0.00 | 0.00 | 37 | 1013.3 |
| 20260509171552 | 26 | 251 | 1.6 | 3.2 | 0.00 | 0.00 | 0.00 | 33 | 1013.4 |
| 20260509171049 | 26 | 283 | 3.2 | 3.2 | 0.00 | 0.00 | 0.00 | 34 | 1013.6 |
| 20260509170545 | 26 | 293 | 3.2 | 4.8 | 0.00 | 0.00 | 0.00 | 37 | 1013.4 |
| 20260509170041 | 26 | 310 | 1.6 | 3.2 | 0.00 | 0.00 | 0.00 | 39 | 1013.6 |
| 20260509165540 | 26 | 292 | 3.2 | 4.8 | 0.00 | 0.00 | 0.00 | 37 | 1013.5 |
| 20260509165035 | 26 | 296 | 1.6 | 3.2 | 0.00 | 0.00 | 0.00 | 39 | 1013.5 |
| 20260509164532 | 25 | 298 | 1.6 | 3.2 | 0.00 | 0.00 | 0.00 | 41 | 1013.4 |
| 20260509164027 | 25 | 276 | 1.6 | 3.2 | 0.00 | 0.00 | 0.00 | 38 | 1013.5 |
| 20260509163526 | 25 | 282 | 1.6 | 3.2 | 0.00 | 0.00 | 0.00 | 39 | 1013.4 |
| 20260509163020 | 25 | 282 | 1.6 | 3.2 | 0.00 | 0.00 | 0.00 | 37 | 1013.4 |
| 20260509162518 | 25 | 292 | 3.2 | 9.7 | 0.00 | 0.00 | 0.00 | 40 | 1013.5 |
| 20260509162014 | 25 | 295 | 1.6 | 1.6 | 0.00 | 0.00 | 0.00 | 44 | 1013.5 |
| 20260509161510 | 25 | 281 | 1.6 | 4.8 | 0.00 | 0.00 | 0.00 | 46 | 1013.5 |
| 20260509161005 | 24 | 282 | 0.0 | 0.0 | 0.00 | 0.00 | 0.00 | 43 | 1013.3 |
| 20260509160501 | 24 | 285 | 3.2 | 3.2 | 0.00 | 0.00 | 0.00 | 50 | 1013.5 |
| 20260509155956 | 23 | 283 | 0.0 | 0.0 | 0.00 | 0.00 | 0.00 | 46 | 1013.2 |
| 20260509155453 | 23 | 286 | 3.2 | 3.2 | 0.00 | 0.00 | 0.00 | 46 | 1013.6 |
| 20260509154949 | 23 | 241 | 0.0 | 0.0 | 0.00 | 0.00 | 0.00 | 49 | 1013.2 |
| 20260509154445 | 23 | 241 | 0.0 | 0.0 | 0.00 | 0.00 | 0.00 | 50 | 1013.2 |
| 20260509153943 | 23 | 240 | 0.0 | 0.0 | 0.00 | 0.00 | 0.00 | 51 | 1013.4 |
| 20260509153440 | 22 | 238 | 0.0 | 0.0 | 0.00 | 0.00 | 0.00 | 52 | 1013.2 |
| 20260509152937 | 22 | 238 | 0.0 | 0.0 | 0.00 | 0.00 | 0.00 | 55 | 1013.2 |
| 20260509152433 | 22 | 238 | 0.0 | 0.0 | 0.00 | 0.00 | 0.00 | 53 | 1013.3 |
| 20260509151930 | 21 | 222 | 0.0 | 0.0 | 0.00 | 0.00 | 0.00 | 61 | 1013.3 |
| 20260509151426 | 21 | 222 | 0.0 | 0.0 | 0.00 | 0.00 | 0.00 | 61 | 1013.4 |
| 20260509150924 | 21 | 222 | 0.0 | 0.0 | 0.00 | 0.00 | 0.00 | 60 | 1013.3 |
| 20260509150421 | 21 | 222 | 0.0 | 0.0 | 0.00 | 0.00 | 0.00 | 64 | 1013.3 |
| 20260509145919 | 20 | 222 | 0.0 | 0.0 | 0.00 | 0.00 | 0.00 | 66 | 1013.2 |
| 20260509145414 | 20 | 222 | 0.0 | 0.0 | 0.00 | 0.00 | 0.00 | 66 | 1013.4 |
| 20260509144910 | 20 | 222 | 0.0 | 0.0 | 0.00 | 0.00 | 0.00 | 69 | 1013.4 |
| 20260509144407 | 20 | 222 | 0.0 | 0.0 | 0.00 | 0.00 | 0.00 | 68 | 1013.3 |